DW6344 Weather Reports


Display with metric or nautical units.
time (UTC)temp
F
wind
direction
speed
MPH
gust
MPH
rain 1hr
in
rain 24hr
in
rain mn
in
humidity
%
barometer
mb
20260504011839 49 140 0.0 0.0 0.00 0.00 0.00 61 1014.3
20260504011345 50 140 0.0 0.0 0.00 0.00 0.00 60 1014.2
20260504010839 50 140 0.0 0.0 0.00 0.00 0.00 59 1014.0
20260504010341 51 140 0.0 0.0 0.00 0.00 0.00 58 1014.1
20260504005847 51 140 0.0 0.0 0.00 0.00 0.00 58 1014.0
20260504005326 51 140 0.0 0.0 0.00 0.00 0.00 57 1013.9
20260504004841 52 140 0.0 0.0 0.00 0.00 0.00 56 1013.9
20260504004352 52 140 0.0 0.0 0.00 0.00 0.00 55 1013.9
20260504003831 53 140 0.0 0.0 0.00 0.00 0.00 53 1013.8
20260504003332 53 140 0.0 0.0 0.00 0.00 0.00 52 1013.7
20260504002849 54 140 0.0 0.0 0.00 0.00 0.00 51 1013.8
20260504002337 54 140 0.0 0.0 0.00 0.00 0.00 49 1013.7
20260504001836 55 140 0.0 0.0 0.00 0.00 0.00 48 1013.6
20260504001347 55 140 0.0 0.0 0.00 0.00 0.00 47 1013.5
20260504000851 56 140 0.0 0.0 0.00 0.00 0.00 46 1013.5
20260504000353 57 140 0.0 0.0 0.00 0.00 0.00 44 1013.4
20260503235835 57 140 0.0 0.0 0.00 0.00 0.00 41 1013.4
20260503235328 58 140 0.0 0.0 0.00 0.00 0.00 40 1013.3
20260503234833 59 140 0.0 0.0 0.00 0.00 0.00 38 1013.3
20260503234329 59 125 0.0 0.0 0.00 0.00 0.00 38 1013.3
20260503233844 60 119 0.0 0.0 0.00 0.00 0.00 35 1013.3
20260503233405 60 120 0.0 1.0 0.00 0.00 0.00 33 1013.3
20260503232835 61 120 0.0 1.0 0.00 0.00 0.00 33 1013.3
20260503232410 61 228 0.0 0.0 0.00 0.00 0.00 32 1013.2
20260503231845 61 227 0.0 0.0 0.00 0.00 0.00 31 1013.2
20260503231406 62 227 0.0 2.0 0.00 0.00 0.00 30 1013.2
20260503230842 62 227 0.0 2.0 0.00 0.00 0.00 28 1013.2
20260503230415 62 228 0.0 2.0 0.00 0.00 0.00 29 1013.1
20260503225828 62 161 0.0 1.0 0.00 0.00 0.00 32 1013.2
20260503225336 63 162 0.0 2.0 0.00 0.00 0.00 30 1013.2
20260503224848 63 162 0.0 2.0 0.00 0.00 0.00 29 1013.2
20260503224404 63 161 0.0 2.0 0.00 0.00 0.00 28 1013.2
20260503223838 63 161 0.0 2.0 0.00 0.00 0.00 27 1013.3
20260503223349 63 180 1.0 2.0 0.00 0.00 0.00 28 1013.3
20260503222856 63 182 1.0 2.0 0.00 0.00 0.00 28 1013.2
20260503222357 63 30 0.0 2.0 0.00 0.00 0.00 29 1013.3
20260503221844 64 30 0.0 2.0 0.00 0.00 0.00 30 1013.2
20260503221353 64 30 0.0 2.0 0.00 0.00 0.00 29 1013.2
20260503220858 64 360 1.0 3.0 0.00 0.00 0.00 29 1013.2
20260503220337 64 15 1.0 3.0 0.00 0.00 0.00 27 1013.2
20260503215831 64 179 1.0 4.0 0.00 0.00 0.00 27 1013.3
20260503215351 64 30 1.0 3.0 0.00 0.00 0.00 28 1013.1
20260503214842 64 66 1.0 2.0 0.00 0.00 0.00 29 1013.1
20260503214337 64 175 1.0 2.0 0.00 0.00 0.00 28 1013.0
20260503213909 64 87 0.0 4.0 0.00 0.00 0.00 29 1013.1
20260503213345 64 360 2.0 4.0 0.00 0.00 0.00 28 1013.2
20260503212840 64 360 1.0 3.0 0.00 0.00 0.00 28 1013.1
20260503212336 64 9 1.0 3.0 0.00 0.00 0.00 29 1013.0
20260503211912 64 19 0.0 4.0 0.00 0.00 0.00 27 1013.1
20260503211340 64 215 2.0 4.0 0.00 0.00 0.00 27 1013.1
20260503210841 64 302 1.0 4.0 0.00 0.00 0.00 25 1013.1
20260503210341 65 226 1.0 4.0 0.00 0.00 0.00 26 1013.0
20260503205858 66 244 2.0 4.0 0.00 0.00 0.00 24 1013.0
20260503205356 66 267 1.0 2.0 0.00 0.00 0.00 26 1013.1
20260503204854 66 45 0.0 3.0 0.00 0.00 0.00 25 1013.1
20260503204335 66 71 1.0 5.0 0.00 0.00 0.00 25 1013.1
20260503203850 67 69 2.0 5.0 0.00 0.00 0.00 24 1013.1
20260503203354 67 360 2.0 4.0 0.00 0.00 0.00 25 1013.0
20260503202857 67 10 1.0 4.0 0.00 0.00 0.00 24 1013.0
20260503202335 68 168 1.0 4.0 0.00 0.00 0.00 24 1013.1
20260503201904 68 256 1.0 4.0 0.00 0.00 0.00 24 1013.1
20260503201351 68 54 1.0 2.0 0.00 0.00 0.00 24 1013.1
20260503200827 67 218 1.0 4.0 0.00 0.00 0.00 23 1013.2
20260503200405 67 360 2.0 4.0 0.00 0.00 0.00 24 1013.4
20260503195829 67 213 2.0 4.0 0.00 0.00 0.00 25 1013.5
20260503195330 67 60 1.0 6.0 0.00 0.00 0.00 25 1013.5
20260503194849 66 331 1.0 6.0 0.00 0.00 0.00 24 1013.6
20260503194405 66 30 1.0 4.0 0.00 0.00 0.00 24 1013.7
20260503193837 67 40 1.0 4.0 0.00 0.00 0.00 24 1013.7
20260503193330 68 255 2.0 4.0 0.00 0.00 0.00 23 1013.9
20260503192828 67 296 1.0 4.0 0.00 0.00 0.00 27 1014.0
20260503192406 67 173 1.0 4.0 0.00 0.00 0.00 25 1013.9
20260503191838 66 177 1.0 4.0 0.00 0.00 0.00 25 1014.0
20260503191335 66 249 2.0 4.0 0.00 0.00 0.00 24 1014.1
20260503190843 66 36 1.0 6.0 0.00 0.00 0.00 27 1014.2
20260503190342 66 313 2.0 6.0 0.00 0.00 0.00 25 1014.1
20260503185852 66 283 2.0 7.0 0.00 0.00 0.00 25 1014.2
20260503185340 65 9 2.0 7.0 0.00 0.00 0.00 25 1014.2
20260503184848 64 46 2.0 7.0 0.00 0.00 0.00 25 1014.3
20260503184350 64 281 2.0 4.0 0.00 0.00 0.00 25 1014.3
20260503183831 64 253 2.0 4.0 0.00 0.00 0.00 27 1014.4
20260503183333 65 33 2.0 5.0 0.00 0.00 0.00 25 1014.5
20260503182825 64 236 1.0 5.0 0.00 0.00 0.00 29 1014.4
20260503182352 64 318 2.0 4.0 0.00 0.00 0.00 28 1014.5
20260503181851 64 57 1.0 4.0 0.00 0.00 0.00 28 1014.5
20260503181356 64 230 2.0 4.0 0.00 0.00 0.00 26 1014.6
20260503180833 63 68 1.0 6.0 0.00 0.00 0.00 28 1014.6
20260503180404 64 198 2.0 6.0 0.00 0.00 0.00 27 1014.6
20260503175837 63 234 2.0 4.0 0.00 0.00 0.00 27 1014.6
20260503175334 63 355 1.0 4.0 0.00 0.00 0.00 28 1014.5
20260503174839 63 266 1.0 4.0 0.00 0.00 0.00 27 1014.6
20260503174351 62 261 2.0 6.0 0.00 0.00 0.00 28 1014.5
20260503173831 62 337 1.0 4.0 0.00 0.00 0.00 29 1014.6
20260503173404 62 298 2.0 5.0 0.00 0.00 0.00 29 1014.7
20260503172838 62 32 2.0 6.0 0.00 0.00 0.00 28 1014.9
20260503172355 61 38 2.0 7.0 0.00 0.00 0.00 27 1014.9
20260503171853 62 229 3.0 7.0 0.00 0.00 0.00 26 1014.9
20260503171359 62 349 1.0 4.0 0.00 0.00 0.00 28 1015.0
20260503170831 62 15 2.0 7.0 0.00 0.00 0.00 29 1015.1
20260503170330 62 306 2.0 7.0 0.00 0.00 0.00 27 1015.1
20260503035847 48 94 0.0 0.0 0.00 0.00 0.00 81 1010.5
20260503035347 48 94 0.0 0.0 0.00 0.00 0.00 81 1010.4
20260503034829 48 94 0.0 0.0 0.00 0.00 0.00 80 1010.5
20260503034343 48 94 0.0 0.0 0.00 0.00 0.00 80 1010.5
20260503033900 48 94 0.0 0.0 0.00 0.00 0.00 80 1010.5
20260503033338 48 94 0.0 0.0 0.00 0.00 0.00 80 1010.5
20260503032837 48 94 0.0 0.0 0.00 0.00 0.00 79 1010.4
20260503032333 49 94 0.0 0.0 0.00 0.00 0.00 79 1010.4
20260503031903 49 94 0.0 0.0 0.00 0.00 0.00 79 1010.4
20260503031331 49 94 0.0 0.0 0.00 0.00 0.00 79 1010.4
20260503030849 49 94 0.0 0.0 0.00 0.00 0.00 79 1010.5
20260503030356 49 94 0.0 0.0 0.00 0.00 0.00 79 1010.5
20260503025837 49 94 0.0 0.0 0.00 0.00 0.00 78 1010.5
20260503025331 49 94 0.0 0.0 0.00 0.00 0.00 78 1010.5
20260503024838 50 94 0.0 0.0 0.00 0.00 0.00 77 1010.6
20260503024341 50 94 0.0 0.0 0.00 0.00 0.00 77 1010.6
20260503023856 50 94 0.0 0.0 0.00 0.00 0.00 76 1010.5
20260503023340 50 94 0.0 0.0 0.00 0.00 0.00 76 1010.4
20260503022838 51 94 0.0 0.0 0.00 0.00 0.00 75 1010.4
20260503022339 51 94 0.0 0.0 0.00 0.00 0.00 75 1010.4
20260503021908 51 94 0.0 0.0 0.00 0.00 0.00 75 1010.4
20260503021346 51 94 0.0 0.0 0.00 0.00 0.00 75 1010.4
20260503020844 51 94 0.0 0.0 0.00 0.00 0.00 75 1010.4
20260503020331 51 94 0.0 0.0 0.00 0.00 0.00 73 1010.5
20260503015842 52 94 0.0 0.0 0.00 0.00 0.00 73 1010.4
20260503015335 52 94 0.0 0.0 0.00 0.00 0.00 73 1010.4
20260503014841 52 94 0.0 0.0 0.00 0.00 0.00 74 1010.4
20260503014355 52 94 0.0 0.0 0.00 0.00 0.00 73 1010.3
20260503013850 52 94 0.0 0.0 0.00 0.00 0.00 72 1010.3
20260503013400 52 94 0.0 0.0 0.00 0.00 0.00 71 1010.3
20260503012831 52 94 0.0 0.0 0.00 0.00 0.00 71 1010.3
20260503012330 53 94 0.0 0.0 0.00 0.00 0.00 70 1010.4